GSAT-30

Last updated on Sun Oct 06 2024 00:02:42 GMT+0000 (Coordinated Universal Time)

1 45026U 20005A 24279.53590757 -.00000155 00000+0 00000+0 0 9999 2 45026 0.0550 99.1030 0002143 40.7113 150.8220 1.00271500 17290
UTC large
Height (km)
Speed (km/s)
/
Latitude / Longitude
Inclination (degrees)
Orbital Period (minutes)
Azimuth
Elevation
Range (km)
Doppler Factor

Next 0 passes for location: London (51.5072 / 0.1276)

Sorry there are no passes over London.